Welcome to Northern Hawkes Bay. New Zealand.
PWS Header
      nz Flag



Hit Counter


W3C Valid W3C Valid logo


    Wairoa

Select any of the Stations below to visit their websites.










Historic Data from Weather Underground
Select the location of interest below. Wairoa is the default. Please have patience, this Data is slow to load in.
Northern Hawkes Bay Historical Data
Daily Summary for January 23, 2017 Units:  English    Metric   Both
« Previous Day
Next Day »
Daily Weekly Monthly Yearly Custom
  High: Low: Average:
Temperature: 69.8 °F 57.4 °F 64 °F
Dew Point: 57.2 °F 46 °F 50 °F
Humidity: 85% 44% 61%
Wind Speed: 15.9mph 0mph 5.7mph
Wind Gust: 25.1mph - -
Wind- - WNW
Pressure: 29.9 in 29.4 in -
Precipitation: 0.01 in    
Historical Graphs
 
 
Tabular Data for January 23, 2017
Time Temperature Dew Point Pressure Wind Wind Speed Wind Gust Humidity Rainfall Rate (Hourly) solar
00:01 63.7 °F 47.7 °F 29.4 in NW 6.9 mph 13 mph 56% 0 in 0 W/m2
00:06 63.7 °F 48.2 °F 29.4 in NNW 6.9 mph 13.6 mph 57% 0 in 0 W/m2
00:11 63.5 °F 48.6 °F 29.4 in NNW 6 mph 14.5 mph 58% 0 in 0 W/m2
00:16 63 °F 48.4 °F 29.4 in NNW 5.4 mph 14.5 mph 59% 0 in 0 W/m2
00:21 63.1 °F 48.6 °F 29.4 in NNW 6 mph 13 mph 59% 0 in 0 W/m2
00:26 63.1 °F 48.9 °F 29.4 in NNW 9.8 mph 13 mph 60% 0 in 0 W/m2
00:31 63.1 °F 48.9 °F 29.4 in NNW 6 mph 11.4 mph 60% 0 in 0 W/m2
00:36 63.5 °F 49.5 °F 29.4 in NNW 5.4 mph 10.7 mph 60% 0 in 0 W/m2
00:41 63 °F 49.3 °F 29.4 in NNW 4.5 mph 13.6 mph 61% 0 in 0 W/m2
00:46 62.8 °F 49.1 °F 29.4 in NNW 4.5 mph 13.6 mph 61% 0 in 0 W/m2
00:51 63.3 °F 48.7 °F 29.4 in NNW 8.3 mph 16.8 mph 59% 0 in 0 W/m2
00:56 63.1 °F 48.6 °F 29.4 in NNW 5.4 mph 16.8 mph 59% 0 in 0 W/m2
01:01 63.1 °F 48.9 °F 29.4 in NNW 6.9 mph 13 mph 60% 0 in 0 W/m2
01:06 63.1 °F 48.9 °F 29.4 in NNW 6 mph 13 mph 60% 0 in 0 W/m2
01:11 63 °F 48.9 °F 29.4 in NNW 8.3 mph 13 mph 60% 0 in 0 W/m2
01:16 62.4 °F 48.4 °F 29.4 in North 7.6 mph 15.2 mph 60% 0 in 0 W/m2
01:21 63.3 °F 47.8 °F 29.4 in NNW 15.2 mph 19.7 mph 57% 0 in 0 W/m2
01:26 63.5 °F 47.5 °F 29.4 in NNW 9.2 mph 25.1 mph 56% 0 in 0 W/m2
01:31 63.5 °F 47.5 °F 29.4 in NNW 7.6 mph 25.1 mph 56% 0 in 0 W/m2
01:36 62.8 °F 46.9 °F 29.4 in NW 10.7 mph 19 mph 56% 0 in 0 W/m2
01:41 63.5 °F 47.5 °F 29.4 in NW 7.6 mph 18.3 mph 56% 0 in 0 W/m2
01:46 63.3 °F 47.8 °F 29.4 in NW 9.2 mph 18.3 mph 57% 0 in 0 W/m2
01:51 63.3 °F 47.8 °F 29.4 in NW 6 mph 19 mph 57% 0 in 0 W/m2
01:56 63 °F 47.5 °F 29.4 in NW 9.8 mph 19 mph 57% 0 in 0 W/m2
02:01 63.3 °F 47.8 °F 29.4 in NNW 7.6 mph 16.8 mph 57% 0 in 0 W/m2
02:06 63.3 °F 47.8 °F 29.4 in NNW 9.2 mph 17.4 mph 57% 0 in 0 W/m2
02:11 63.3 °F 47.8 °F 29.4 in NNW 6.9 mph 17.4 mph 57% 0 in 0 W/m2
02:16 63.3 °F 47.8 °F 29.4 in NNW 6.9 mph 15.9 mph 57% 0 in 0 W/m2
02:21 63.1 °F 47.7 °F 29.4 in NNW 11.4 mph 18.3 mph 57% 0 in 0 W/m2
02:26 63.1 °F 47.7 °F 29.4 in NNW 10.7 mph 20.6 mph 57% 0 in 0 W/m2
02:31 63.1 °F 47.7 °F 29.4 in NNW 4.5 mph 20.6 mph 57% 0 in 0 W/m2
02:36 63.1 °F 47.7 °F 29.4 in NNW 8.3 mph 14.5 mph 57% 0 in 0 W/m2
02:41 63.1 °F 47.1 °F 29.4 in NNW 9.8 mph 17.4 mph 56% 0 in 0 W/m2
02:46 63.3 °F 47.5 °F 29.4 in NNW 6 mph 17.4 mph 56% 0 in 0 W/m2
02:51 63.3 °F 47.5 °F 29.4 in NW 11.4 mph 19 mph 56% 0 in 0 W/m2
02:56 63.3 °F 47.5 °F 29.4 in NW 9.2 mph 19.7 mph 56% 0 in 0 W/m2
03:01 63.3 °F 47.5 °F 29.4 in NW 6.9 mph 19.7 mph 56% 0 in 0 W/m2
03:06 63.3 °F 47.5 °F 29.4 in NW 4.5 mph 17.4 mph 56% 0 in 0 W/m2
03:11 63.1 °F 47.1 °F 29.4 in NW 6.9 mph 15.9 mph 56% 0 in 0 W/m2
03:16 63.1 °F 47.1 °F 29.4 in NNW 15.9 mph 22.1 mph 56% 0 in 0 W/m2
03:21 63.3 °F 46.9 °F 29.4 in NW 10.7 mph 22.1 mph 55% 0 in 0 W/m2
03:26 63.3 °F 47.5 °F 29.4 in NW 3.8 mph 22.1 mph 56% 0 in 0 W/m2
03:31 63.1 °F 47.1 °F 29.4 in NNW 5.4 mph 15.9 mph 56% 0 in 0 W/m2
03:36 63 °F 46.9 °F 29.4 in NNW 4.5 mph 12.1 mph 56% 0 in 0 W/m2
03:41 63 °F 46.9 °F 29.4 in NW 6.9 mph 12.1 mph 56% 0 in 0 W/m2
03:46 63 °F 46.9 °F 29.4 in NW 5.4 mph 12.1 mph 56% 0 in 0 W/m2
03:51 63 °F 46.9 °F 29.4 in NW 6 mph 9.8 mph 56% 0 in 0 W/m2
03:56 63 °F 46.9 °F 29.4 in NNW 4.5 mph 9.8 mph 56% 0 in 0 W/m2
04:01 62.8 °F 46.9 °F 29.4 in NNW 9.8 mph 15.2 mph 56% 0 in 0 W/m2
04:06 63 °F 46.9 °F 29.4 in NNW 6 mph 16.8 mph 56% 0 in 0 W/m2
04:11 63 °F 46.9 °F 29.4 in NW 11.4 mph 16.8 mph 56% 0 in 0 W/m2
04:16 63.1 °F 47.1 °F 29.4 in NNW 12.1 mph 19 mph 56% 0 in 0 W/m2
04:21 63 °F 47.5 °F 29.4 in NNW 5.4 mph 19 mph 57% 0 in 0 W/m2
04:26 62.8 °F 47.3 °F 29.4 in NNW 9.8 mph 16.8 mph 57% 0 in 0 W/m2
04:31 62.6 °F 47.7 °F 29.4 in NNW 10.7 mph 16.8 mph 58% 0 in 0 W/m2
04:36 62.4 °F 47.8 °F 29.4 in NNW 6.9 mph 14.5 mph 59% 0 in 0 W/m2
04:41 62.2 °F 48.2 °F 29.4 in NW 6.9 mph 14.5 mph 60% 0 in 0 W/m2
04:46 62.2 °F 48.2 °F 29.4 in NW 6.9 mph 15.2 mph 60% 0 in 0 W/m2
04:51 62.2 °F 48.2 °F 29.4 in NW 7.6 mph 15.2 mph 60% 0 in 0 W/m2
04:56 62.1 °F 48.6 °F 29.4 in NNW 9.2 mph 15.2 mph 61% 0 in 0 W/m2
05:01 62.1 °F 48.6 °F 29.4 in NNW 12.1 mph 18.3 mph 61% 0 in 0 W/m2
05:06 62.2 °F 48.6 °F 29.4 in NNW 9.2 mph 19.7 mph 61% 0 in 0 W/m2
05:11 62.1 °F 48.6 °F 29.4 in NNW 12.1 mph 19.7 mph 61% 0 in 0 W/m2
05:16 62.1 °F 48.6 °F 29.4 in NNW 13 mph 17.4 mph 61% 0 in 0 W/m2
05:21 62.1 °F 48.9 °F 29.4 in NNW 5.4 mph 18.3 mph 62% 0 in 0 W/m2
05:26 61.9 °F 48.7 °F 29.4 in NNW 9.2 mph 18.3 mph 62% 0 in 0 W/m2
05:31 61.9 °F 48.7 °F 29.4 in NNW 6.9 mph 15.2 mph 62% 0 in 0 W/m2
05:36 61.9 °F 48.7 °F 29.4 in NNW 7.6 mph 17.4 mph 62% 0 in 0 W/m2
05:41 61.9 °F 48.7 °F 29.4 in North 9.2 mph 19 mph 62% 0 in 0 W/m2
05:46 62.2 °F 48.6 °F 29.4 in NNW 9.2 mph 22.1 mph 61% 0 in 0 W/m2
05:51 62.1 °F 48.6 °F 29.4 in NNW 7.6 mph 22.1 mph 61% 0 in 0 W/m2
05:56 61.9 °F 48.7 °F 29.5 in NNW 3.1 mph 15.9 mph 62% 0 in 0 W/m2
06:01 61.5 °F 48.4 °F 29.5 in NW 6 mph 17.4 mph 62% 0 in 0 W/m2
06:06 61.5 °F 48.4 °F 29.5 in NNW 6 mph 17.4 mph 62% 0 in 1 W/m2
06:11 61.2 °F 48.6 °F 29.5 in NNW 5.4 mph 13.6 mph 63% 0 in 4 W/m2
06:16 61.2 °F 48.6 °F 29.5 in NNW 5.4 mph 12.1 mph 63% 0 in 6 W/m2
06:21 61.3 °F 48.2 °F 29.5 in NNW 5.4 mph 14.5 mph 62% 0 in 10 W/m2
06:26 61.7 °F 48.6 °F 29.5 in NNW 12.1 mph 15.9 mph 62% 0 in 13 W/m2
06:31 62.1 °F 48.6 °F 29.5 in NNW 8.3 mph 15.9 mph 61% 0 in 17 W/m2
06:36 62.1 °F 48.6 °F 29.5 in NNW 11.4 mph 19 mph 61% 0 in 24 W/m2
06:41 62.4 °F 48.7 °F 29.5 in NNW 8.3 mph 19 mph 61% 0 in 42 W/m2
06:46 62.8 °F 48.4 °F 29.5 in NNW 6.9 mph 19 mph 59% 0 in 50 W/m2
06:51 63.1 °F 48 °F 29.5 in NNW 8.3 mph 15.2 mph 58% 0 in 55 W/m2
06:56 63.3 °F 48.4 °F 29.5 in NNW 6 mph 15.2 mph 58% 0 in 63 W/m2
07:01 63.7 °F 48.2 °F 29.5 in NNW 7.6 mph 15.2 mph 57% 0 in 73 W/m2
07:06 63.9 °F 48.4 °F 29.5 in NNW 6.9 mph 13.6 mph 57% 0 in 83 W/m2
07:11 64.2 °F 48.2 °F 29.5 in NNW 6.9 mph 13 mph 56% 0 in 91 W/m2
07:16 64.6 °F 48.6 °F 29.5 in NNW 3.8 mph 13 mph 56% 0 in 104 W/m2
07:21 64.9 °F 48.9 °F 29.5 in NW 6 mph 9.8 mph 56% 0 in 110 W/m2
07:26 65.1 °F 49.1 °F 29.5 in NW 3.1 mph 10.7 mph 56% 0 in 132 W/m2
07:31 65.1 °F 48.6 °F 29.5 in NW 6.9 mph 12.1 mph 55% 0 in 150 W/m2
07:36 65.3 °F 48.7 °F 29.5 in NW 7.6 mph 12.1 mph 55% 0 in 160 W/m2
07:41 65.7 °F 49.1 °F 29.5 in NW 3.8 mph 15.9 mph 55% 0 in 179 W/m2
07:46 66 °F 49.5 °F 29.5 in NW 7.6 mph 15.9 mph 55% 0 in 194 W/m2
07:51 66.2 °F 48.6 °F 29.5 in NW 8.3 mph 18.3 mph 53% 0 in 204 W/m2
07:56 66.6 °F 49.5 °F 29.5 in NW 6 mph 18.3 mph 54% 0 in 233 W/m2
08:01 66.7 °F 48.6 °F 29.5 in NW 7.6 mph 15.2 mph 52% 0 in 271 W/m2
08:06 67.1 °F 49.5 °F 29.5 in NW 7.6 mph 15.9 mph 53% 0 in 303 W/m2
08:11 67.5 °F 48.7 °F 29.5 in NW 12.1 mph 19.7 mph 51% 0 in 353 W/m2
08:16 67.5 °F 48.7 °F 29.5 in NW 6.9 mph 19.7 mph 51% 0 in 370 W/m2
08:21 67.8 °F 49.1 °F 29.5 in NW 4.5 mph 20.6 mph 51% 0 in 389 W/m2
08:26 68.5 °F 48.6 °F 29.5 in NW 10.7 mph 20.6 mph 49% 0 in 290 W/m2
08:31 67.1 °F 48.4 °F 29.5 in NW 9.2 mph 20.6 mph 51% 0 in 350 W/m2
08:36 67.3 °F 49.6 °F 29.5 in NW 8.3 mph 20.6 mph 53% 0 in 421 W/m2
08:41 67.8 °F 49.1 °F 29.5 in NW 9.8 mph 16.8 mph 51% 0 in 451 W/m2
08:46 68.4 °F 48.9 °F 29.5 in NW 6.9 mph 16.8 mph 50% 0 in 396 W/m2
08:51 68.9 °F 48.9 °F 29.5 in NW 8.3 mph 15.2 mph 49% 0 in 401 W/m2
08:56 68.9 °F 48.4 °F 29.5 in NW 11.4 mph 17.4 mph 48% 0 in 490 W/m2
09:01 69.4 °F 48.9 °F 29.5 in NW 6 mph 17.4 mph 48% 0 in 317 W/m2
09:06 68.4 °F 47.8 °F 29.5 in NW 5.4 mph 20.6 mph 48% 0 in 250 W/m2
09:11 67.6 °F 48.9 °F 29.5 in NW 6 mph 20.6 mph 51% 0 in 285 W/m2
09:16 67.6 °F 49.5 °F 29.5 in NW 5.4 mph 15.9 mph 52% 0 in 312 W/m2
09:21 67.6 °F 49.5 °F 29.5 in NW 9.2 mph 16.8 mph 52% 0 in 277 W/m2
09:26 66.9 °F 48.7 °F 29.5 in WNW 11.4 mph 19.7 mph 52% 0 in 287 W/m2
09:31 66.7 °F 49.1 °F 29.5 in WNW 9.8 mph 19.7 mph 53% 0 in 249 W/m2
09:36 66.4 °F 49.3 °F 29.6 in NW 11.4 mph 19.7 mph 54% 0 in 233 W/m2
09:41 66.4 °F 49.3 °F 29.6 in NNW 9.2 mph 19.7 mph 54% 0 in 245 W/m2
09:46 66.4 °F 48.7 °F 29.6 in NW 14.5 mph 17.4 mph 53% 0 in 262 W/m2
09:51 66.7 °F 49.6 °F 29.6 in NW 13 mph 19 mph 54% 0 in 301 W/m2
09:56 67.5 °F 49.8 °F 29.6 in NW 7.6 mph 19 mph 53% 0 in 496 W/m2
10:01 69.1 °F 50.2 °F 29.6 in NW 7.6 mph 19 mph 51% 0 in 425 W/m2
10:06 68.7 °F 48.7 °F 29.6 in NW 6 mph 18.3 mph 49% 0 in 636 W/m2
10:11 69.8 °F 49.3 °F 29.6 in NW 6.9 mph 18.3 mph 48% 0 in 407 W/m2
10:16 69.4 °F 48.9 °F 29.6 in WNW 6.9 mph 15.2 mph 48% 0 in 280 W/m2
10:21 68.4 °F 48.6 °F 29.6 in NW 9.8 mph 15.9 mph 49% 0 in 365 W/m2
10:26 68.4 °F 47.8 °F 29.6 in NNW 8.3 mph 15.9 mph 48% 0 in 379 W/m2
10:31 68.9 °F 48.9 °F 29.6 in NNW 8.3 mph 15.9 mph 49% 0 in 271 W/m2
10:36 69.1 °F 48.6 °F 29.6 in NW 3.8 mph 13 mph 48% 0 in 320 W/m2
10:41 69.4 °F 47.8 °F 29.6 in WNW 4.5 mph 9.8 mph 46% 0 in 291 W/m2
10:46 69.6 °F 47.5 °F 29.6 in WNW 7.6 mph 12.1 mph 45% 0 in 304 W/m2
11:02 69.4 °F 47.1 °F 29.6 in West 10.7 mph 15.2 mph 45% 0 in 300 W/m2
11:07 69.4 °F 47.1 °F 29.6 in WNW 13 mph 18.3 mph 45% 0 in 312 W/m2
11:12 69.4 °F 47.1 °F 29.6 in WNW 3.1 mph 18.3 mph 45% 0 in 329 W/m2
11:17 69.1 °F 46.9 °F 29.6 in WNW 7.6 mph 18.3 mph 45% 0 in 275 W/m2
11:22 68.9 °F 46.8 °F 29.6 in WNW 7.6 mph 16.8 mph 45% 0 in 275 W/m2
11:27 68.9 °F 46 °F 29.6 in NW 10.7 mph 17.4 mph 44% 0 in 247 W/m2
11:32 68.7 °F 46.6 °F 29.6 in NW 3.8 mph 17.4 mph 45% 0 in 224 W/m2
11:37 68.7 °F 46.6 °F 29.6 in WNW 3.8 mph 15.2 mph 45% 0 in 202 W/m2
11:42 68.7 °F 46.6 °F 29.6 in NW 6.9 mph 15.9 mph 45% 0 in 176 W/m2
11:47 68.2 °F 46 °F 29.6 in NW 9.8 mph 15.9 mph 45% 0 in 161 W/m2
11:52 68 °F 46.6 °F 29.6 in WNW 5.4 mph 14.5 mph 46% 0 in 188 W/m2
11:57 68.4 °F 47.5 °F 29.6 in NW 6.9 mph 13 mph 47% 0 in 202 W/m2
12:02 68.2 °F 46.6 °F 29.6 in WNW 6 mph 15.9 mph 46% 0 in 214 W/m2
12:07 67.8 °F 48 °F 29.6 in WNW 5.4 mph 15.9 mph 49% 0 in 207 W/m2
12:12 67.8 °F 48.6 °F 29.6 in West 6 mph 15.2 mph 50% 0 in 236 W/m2
12:17 67.8 °F 48.6 °F 29.6 in WNW 6.9 mph 11.4 mph 50% 0 in 220 W/m2
12:22 67.6 °F 48.9 °F 29.6 in NW 6.9 mph 11.4 mph 51% 0 in 233 W/m2
12:27 67.8 °F 49.6 °F 29.6 in WNW 6.9 mph 11.4 mph 52% 0 in 198 W/m2
12:32 67.5 °F 48.2 °F 29.6 in West 6 mph 12.1 mph 50% 0 in 188 W/m2
12:37 67.1 °F 48.9 °F 29.6 in West 6.9 mph 12.1 mph 52% 0 in 210 W/m2
12:42 66.9 °F 49.8 °F 29.6 in West 2.2 mph 10.7 mph 54% 0 in 221 W/m2
12:47 67.1 °F 50.4 °F 29.6 in West 2.2 mph 10.7 mph 55% 0 in 199 W/m2
12:52 66.9 °F 50.2 °F 29.6 in WSW 4.5 mph 11.4 mph 55% 0 in 191 W/m2
12:57 66.6 °F 50.4 °F 29.6 in West 6 mph 11.4 mph 56% 0 in 174 W/m2
13:02 66 °F 50.7 °F 29.7 in West 9.8 mph 12.1 mph 58% 0 in 161 W/m2
13:07 63.5 °F 55.6 °F 29.7 in SSW 6.9 mph 13.6 mph 75% 0 in 156 W/m2
13:12 62.1 °F 56.5 °F 29.7 in South 10.7 mph 14.5 mph 82% 0 in 263 W/m2
13:17 61.5 °F 56.7 °F 29.7 in SSW 5.4 mph 19 mph 84% 0.01 in 402 W/m2
13:22 61.7 °F 57.2 °F 29.7 in SSW 10.7 mph 19 mph 85% 0.01 in 387 W/m2
13:27 61.3 °F 56.1 °F 29.7 in South 11.4 mph 19 mph 83% 0.01 in 294 W/m2
13:32 61.2 °F 55.9 °F 29.7 in South 9.2 mph 19 mph 83% 0.01 in 207 W/m2
13:37 61 °F 55.8 °F 29.7 in SSW 6.9 mph 15.9 mph 83% 0.01 in 202 W/m2
13:42 61 °F 55.8 °F 29.7 in South 7.6 mph 16.8 mph 83% 0.01 in 240 W/m2
13:48 61.2 °F 55.9 °F 29.7 in South 7.6 mph 17.4 mph 83% 0.01 in 249 W/m2
13:53 61.2 °F 55.9 °F 29.7 in SSW 6.9 mph 18.3 mph 83% 0.01 in 206 W/m2
13:58 61 °F 55.6 °F 29.7 in South 12.1 mph 18.3 mph 82% 0.01 in 209 W/m2
14:03 61 °F 55.8 °F 29.7 in SSW 11.4 mph 16.8 mph 83% 0.01 in 205 W/m2
14:08 60.8 °F 55.2 °F 29.7 in SSW 10.7 mph 18.3 mph 82% 0.01 in 183 W/m2
14:13 60.8 °F 55.2 °F 29.7 in SSW 13 mph 20.6 mph 82% 0.01 in 191 W/m2
14:18 60.8 °F 54.9 °F 29.7 in SW 9.8 mph 20.6 mph 81% 0 in 328 W/m2
14:23 61.3 °F 55.6 °F 29.7 in SSW 11.4 mph 17.4 mph 81% 0 in 359 W/m2
14:28 61.9 °F 55.2 °F 29.7 in South 12.1 mph 16.8 mph 79% 0 in 325 W/m2
14:33 62.2 °F 54.7 °F 29.7 in SSW 7.6 mph 16.8 mph 76% 0 in 297 W/m2
14:38 62.4 °F 54.9 °F 29.7 in SSW 9.8 mph 16.8 mph 76% 0 in 269 W/m2
14:43 62.2 °F 54 °F 29.7 in SSW 8.3 mph 15.2 mph 74% 0 in 284 W/m2
14:48 62.8 °F 53.6 °F 29.7 in SSW 6 mph 15.2 mph 72% 0 in 298 W/m2
14:53 63.5 °F 54 °F 29.7 in SSW 8.3 mph 12.1 mph 71% 0 in 321 W/m2
14:58 63.5 °F 53.6 °F 29.7 in SSW 6.9 mph 13.6 mph 70% 0 in 342 W/m2
15:03 63.9 °F 54 °F 29.7 in SSW 3.8 mph 13.6 mph 70% 0 in 392 W/m2
15:08 64.2 °F 52.5 °F 29.7 in SSW 8.3 mph 13.6 mph 66% 0 in 437 W/m2
15:13 64.2 °F 53.1 °F 29.7 in SSW 8.3 mph 13.6 mph 67% 0 in 326 W/m2
15:18 64.4 °F 52.9 °F 29.7 in SW 6 mph 13.6 mph 66% 0 in 274 W/m2
15:23 64 °F 52.5 °F 29.7 in SSW 6 mph 13.6 mph 66% 0 in 239 W/m2
15:28 64 °F 52.5 °F 29.7 in SSW 4.5 mph 11.4 mph 66% 0 in 296 W/m2
15:33 64.4 °F 53.2 °F 29.7 in SW 6.9 mph 12.1 mph 67% 0 in 216 W/m2
15:38 63.9 °F 53.1 °F 29.7 in SW 7.6 mph 12.1 mph 68% 0 in 235 W/m2
15:43 63.7 °F 52.5 °F 29.7 in SSW 6 mph 11.4 mph 67% 0 in 228 W/m2
15:48 63.5 °F 53.2 °F 29.7 in SSW 7.6 mph 10.7 mph 69% 0 in 170 W/m2
15:53 63.5 °F 53.2 °F 29.7 in SSW 3.1 mph 9.8 mph 69% 0 in 165 W/m2
15:58 63.7 °F 53.8 °F 29.7 in SW 6.9 mph 9.8 mph 70% 0 in 166 W/m2
16:03 63.5 °F 53.2 °F 29.7 in SW 4.5 mph 9.2 mph 69% 0 in 229 W/m2
16:08 64 °F 53.2 °F 29.7 in SW 6.9 mph 9.2 mph 68% 0 in 271 W/m2
16:13 64.4 °F 52.9 °F 29.7 in SW 6 mph 10.7 mph 66% 0 in 336 W/m2
16:18 64.9 °F 52.9 °F 29.7 in SW 7.6 mph 10.7 mph 65% 0 in 392 W/m2
16:23 65.5 °F 53.1 °F 29.7 in SW 6.9 mph 10.7 mph 64% 0 in 386 W/m2
16:28 65.7 °F 52.3 °F 29.7 in SSW 7.6 mph 10.7 mph 62% 0 in 277 W/m2
16:33 64.9 °F 50.7 °F 29.7 in SW 4.5 mph 10.7 mph 60% 0 in 316 W/m2
16:38 64.9 °F 51.6 °F 29.7 in SW 5.4 mph 9.8 mph 62% 0 in 238 W/m2
16:43 64.8 °F 51.4 °F 29.7 in SSW 8.3 mph 10.7 mph 62% 0 in 241 W/m2
16:48 64.4 °F 52 °F 29.7 in SW 3.1 mph 10.7 mph 64% 0 in 222 W/m2
16:53 64.4 °F 52.3 °F 29.7 in SW 6.9 mph 10.7 mph 65% 0 in 190 W/m2
16:58 64.2 °F 51.8 °F 29.8 in SW 3.8 mph 8.3 mph 64% 0 in 184 W/m2
17:03 64.2 °F 51.8 °F 29.7 in SW 3.1 mph 8.3 mph 64% 0 in 226 W/m2
17:08 64.8 °F 52.7 °F 29.7 in SSW 3.8 mph 5.4 mph 65% 0 in 214 W/m2
17:13 65.1 °F 52.7 °F 29.8 in SSW 3.8 mph 6 mph 64% 0 in 164 W/m2
17:18 64.8 °F 52 °F 29.8 in Calm   6 mph 63% 0 in 155 W/m2
17:23 65.3 °F 52.3 °F 29.8 in South 0.7 mph 5.4 mph 63% 0 in 136 W/m2
17:26 65.3 °F 52.9 °F 29.8 in South 1.6 mph 4.5 mph 64% 0 in 121 W/m2
17:31 65.1 °F 52.7 °F 29.8 in SSW 0.7 mph 4.5 mph 64% 0 in 118 W/m2
17:41 64.8 °F 51.4 °F 29.8 in Calm   3.8 mph 62% 0 in 151 W/m2
17:46 65.1 °F 51.4 °F 29.8 in SSE 0.7 mph 3.1 mph 61% 0 in 189 W/m2
17:51 65.7 °F 52.7 °F 29.8 in SE 2.2 mph 3.1 mph 63% 0 in 167 W/m2
17:56 65.7 °F 52.3 °F 29.8 in ESE 1.6 mph 3.1 mph 62% 0 in 177 W/m2
18:01 65.8 °F 51.6 °F 29.8 in Calm   3.1 mph 60% 0 in 131 W/m2
18:06 65.8 °F 51.6 °F 29.8 in Calm   3.1 mph 60% 0 in 156 W/m2
18:11 66 °F 51.3 °F 29.8 in Calm   3.1 mph 59% 0 in 132 W/m2
18:16 65.8 °F 50.7 °F 29.8 in Calm   3.8 mph 58% 0 in 147 W/m2
18:21 66 °F 50.7 °F 29.8 in East 1.6 mph 3.8 mph 58% 0 in 152 W/m2
18:26 65.8 °F 50.2 °F 29.8 in NE 0.7 mph 3.8 mph 57% 0 in 130 W/m2
18:31 65.7 °F 49.6 °F 29.8 in Calm   3.8 mph 56% 0 in 103 W/m2
18:36 65.7 °F 49.6 °F 29.8 in ENE 0.7 mph 3.1 mph 56% 0 in 87 W/m2
18:41 65.7 °F 49.1 °F 29.8 in ENE 1.6 mph 3.1 mph 55% 0 in 77 W/m2
18:46 65.5 °F 48.9 °F 29.8 in Calm   3.1 mph 55% 0 in 117 W/m2
18:51 65.5 °F 48.9 °F 29.8 in ENE 0.7 mph 3.8 mph 55% 0 in 97 W/m2
18:56 65.5 °F 48.9 °F 29.8 in Calm   3.8 mph 55% 0 in 85 W/m2
19:01 65.5 °F 48.9 °F 29.8 in NE 0.7 mph 3.1 mph 55% 0 in 78 W/m2
19:06 65.3 °F 48.7 °F 29.8 in Calm   2.2 mph 55% 0 in 55 W/m2
19:25 64.9 °F 49.5 °F 29.8 in North 0.7 mph 2.2 mph 57% 0 in 57 W/m2
19:30 64.6 °F 49.5 °F 29.8 in Calm   3.8 mph 58% 0 in 71 W/m2
19:35 64.8 °F 49.6 °F 29.8 in NNW 0.7 mph 3.8 mph 58% 0 in 68 W/m2
19:40 64.6 °F 48.9 °F 29.8 in Calm   3.1 mph 57% 0 in 40 W/m2
19:45 64.4 °F 49.8 °F 29.8 in NNW 1.6 mph 3.1 mph 59% 0 in 33 W/m2
19:50 64.2 °F 50.2 °F 29.8 in NW 2.2 mph 3.1 mph 60% 0 in 32 W/m2
19:55 64 °F 50.4 °F 29.8 in NNW 2.2 mph 3.1 mph 61% 0 in 34 W/m2
20:00 64 °F 49.8 °F 29.8 in NW 1.6 mph 3.1 mph 60% 0 in 28 W/m2
20:05 63.7 °F 50 °F 29.8 in NW 1.6 mph 3.1 mph 61% 0 in 16 W/m2
20:10 63.5 °F 49.8 °F 29.8 in NW 1.6 mph 3.1 mph 61% 0 in 13 W/m2
20:15 63.5 °F 49.8 °F 29.8 in Calm   2.2 mph 61% 0 in 10 W/m2
20:20 63.3 °F 49.6 °F 29.8 in Calm   2.2 mph 61% 0 in 7 W/m2
20:25 63.3 °F 49.6 °F 29.8 in Calm   1.6 mph 61% 0 in 4 W/m2
20:30 63.1 °F 49.8 °F 29.8 in Calm   1.6 mph 62% 0 in 2 W/m2
20:35 63 °F 49.8 °F 29.8 in Calm   0.7 mph 62% 0 in 0 W/m2
20:40 62.8 °F 49.6 °F 29.8 in Calm   0.7 mph 62% 0 in 0 W/m2
20:45 62.8 °F 50 °F 29.8 in Calm   0.7 mph 63% 0 in 0 W/m2
20:50 62.6 °F 49.8 °F 29.8 in Calm     63% 0 in 0 W/m2
20:55 62.6 °F 49.8 °F 29.8 in Calm     63% 0 in 0 W/m2
21:00 62.6 °F 50.4 °F 29.8 in NW 1.6 mph 3.8 mph 64% 0 in 0 W/m2
21:05 62.4 °F 50.9 °F 29.8 in NW 0.7 mph 3.8 mph 66% 0 in 0 W/m2
21:10 62.2 °F 51.3 °F 29.9 in NW 1.6 mph 2.2 mph 67% 0 in 0 W/m2
21:15 62.1 °F 51.1 °F 29.9 in NW 2.2 mph 3.1 mph 67% 0 in 0 W/m2
21:20 61.9 °F 51.3 °F 29.9 in NW 2.2 mph 4.5 mph 68% 0 in 0 W/m2
21:25 61.9 °F 51.3 °F 29.9 in NW 2.2 mph 4.5 mph 68% 0 in 0 W/m2
21:30 61.7 °F 51.1 °F 29.9 in NNW 1.6 mph 4.5 mph 68% 0 in 0 W/m2
21:35 61.5 °F 51.3 °F 29.9 in NNW 0.7 mph 4.5 mph 69% 0 in 0 W/m2
21:40 61.3 °F 51.4 °F 29.9 in North 1.6 mph 3.1 mph 70% 0 in 0 W/m2
21:45 61.2 °F 51.6 °F 29.9 in North 2.2 mph 4.5 mph 71% 0 in 0 W/m2
21:50 61.2 °F 52.2 °F 29.9 in NNW 1.6 mph 4.5 mph 72% 0 in 0 W/m2
21:55 61 °F 52 °F 29.9 in NNW 1.6 mph 3.8 mph 72% 0 in 0 W/m2
22:12 60.4 °F 52.2 °F 29.9 in Calm   2.2 mph 74% 0 in 0 W/m2
22:17 60.4 °F 52.2 °F 29.9 in NNE 2.2 mph 3.8 mph 74% 0 in 0 W/m2
22:22 60.3 °F 52.3 °F 29.9 in NNE 1.6 mph 3.8 mph 75% 0 in 0 W/m2
22:27 60.1 °F 52.2 °F 29.9 in North 1.6 mph 3.8 mph 75% 0 in 0 W/m2
22:32 60.1 °F 52.2 °F 29.9 in Calm   2.2 mph 75% 0 in 0 W/m2
22:37 59.9 °F 52 °F 29.9 in NNW 0.7 mph 2.2 mph 75% 0 in 0 W/m2
22:42 59.9 °F 52.3 °F 29.9 in Calm   2.2 mph 76% 0 in 0 W/m2
22:47 59.7 °F 52.2 °F 29.9 in Calm   2.2 mph 76% 0 in 0 W/m2
22:52 59.5 °F 52 °F 29.9 in Calm   1.6 mph 76% 0 in 0 W/m2
22:57 59.4 °F 51.8 °F 29.9 in Calm   1.6 mph 76% 0 in 0 W/m2
23:02 59.4 °F 51.8 °F 29.9 in Calm   1.6 mph 76% 0 in 0 W/m2
23:07 59.2 °F 51.6 °F 29.9 in Calm   0.7 mph 76% 0 in 0 W/m2
23:12 59.2 °F 51.6 °F 29.9 in Calm   0.7 mph 76% 0 in 0 W/m2
23:17 59.2 °F 52 °F 29.9 in Calm   1.6 mph 77% 0 in 0 W/m2
23:22 59.2 °F 52.3 °F 29.9 in North 0.7 mph 3.1 mph 78% 0 in 0 W/m2
23:27 59 °F 52.2 °F 29.9 in Calm   3.1 mph 78% 0 in 0 W/m2
23:32 59 °F 52.5 °F 29.9 in Calm   1.6 mph 79% 0 in 0 W/m2
23:37 58.6 °F 52.5 °F 29.9 in Calm     80% 0 in 0 W/m2
23:42 58.5 °F 52.7 °F 29.9 in Calm     81% 0 in 0 W/m2
23:47 58.1 °F 52.3 °F 29.9 in Calm     81% 0 in 0 W/m2
23:52 57.6 °F 51.8 °F 29.9 in Calm     81% 0 in 0 W/m2
23:57 57.4 °F 51.6 °F 29.9 in Calm     81% 0 in 0 W/m2
Northern Hawkes Bay. New Zealand Historic Data
Compliments of Weather Underground - 2 mb